| time (UTC) | temp C | wind direction | speed KPH | gust KPH | rain 1hr cm | rain 24hr cm | rain mn cm | humidity % | barometer mb |
| 20260508122432 | 20 | 290 | 4.8 | 9.7 | 0.00 | 1.35 | 1.35 | 92 | 1019.8 |
| 20260508121929 | 20 | 13 | 0.0 | 0.0 | 0.00 | 1.35 | 1.35 | 92 | 1019.7 |
| 20260508121427 | 20 | 10 | 1.6 | 4.8 | 0.00 | 1.35 | 1.35 | 92 | 1019.5 |
| 20260508120925 | 20 | 314 | 3.2 | 3.2 | 0.00 | 1.35 | 1.35 | 92 | 1019.4 |
| 20260508120422 | 20 | 312 | 4.8 | 6.4 | 0.00 | 1.35 | 1.35 | 92 | 1019.3 |
| 20260508115919 | 20 | 141 | 0.0 | 1.6 | 0.00 | 1.35 | 1.35 | 92 | 1019.1 |
| 20260508115418 | 20 | 27 | 6.4 | 9.7 | 0.00 | 1.35 | 1.35 | 92 | 1018.9 |
| 20260508114914 | 20 | 332 | 6.4 | 14.5 | 0.00 | 1.35 | 1.35 | 92 | 1018.8 |
| 20260508114410 | 20 | 309 | 6.4 | 14.5 | 0.00 | 1.35 | 1.35 | 92 | 1018.9 |
| 20260508113907 | 20 | 1 | 1.6 | 12.9 | 0.00 | 1.35 | 1.35 | 92 | 1018.8 |
| 20260508113405 | 20 | 283 | 4.8 | 6.4 | 0.00 | 1.35 | 1.35 | 92 | 1018.8 |
| 20260508112902 | 20 | 223 | 6.4 | 11.3 | 0.00 | 1.35 | 1.35 | 92 | 1019.0 |
| 20260508112359 | 20 | 352 | 4.8 | 14.5 | 0.18 | 1.35 | 1.35 | 92 | 1018.8 |
| 20260508111855 | 20 | 329 | 4.8 | 6.4 | 0.48 | 1.35 | 1.35 | 92 | 1018.9 |
| 20260508111352 | 20 | 302 | 12.9 | 16.1 | 0.30 | 1.32 | 1.32 | 92 | 1018.5 |
| 20260508110849 | 21 | 345 | 8.0 | 16.1 | 0.18 | 1.30 | 1.30 | 91 | 1018.7 |
| 20260508110347 | 21 | 269 | 6.4 | 11.3 | 0.00 | 1.27 | 1.27 | 91 | 1018.7 |
| 20260508105846 | 21 | 142 | 1.6 | 3.2 | 0.00 | 1.27 | 1.27 | 91 | 1018.8 |
| 20260508105343 | 21 | 273 | 4.8 | 11.3 | 0.00 | 1.27 | 1.27 | 91 | 1018.5 |
| 20260508104840 | 21 | 65 | 0.0 | 3.2 | 0.00 | 1.27 | 1.27 | 91 | 1018.5 |
| 20260508104336 | 21 | 35 | 1.6 | 6.4 | 0.00 | 1.27 | 1.27 | 91 | 1018.2 |
| 20260508103834 | 21 | 298 | 6.4 | 9.7 | 0.00 | 1.27 | 1.27 | 91 | 1018.2 |
| 20260508103331 | 21 | 345 | 3.2 | 4.8 | 0.13 | 1.27 | 1.27 | 91 | 1018.3 |
| 20260508102828 | 21 | 359 | 3.2 | 4.8 | 0.13 | 1.27 | 1.27 | 91 | 1018.1 |
| 20260508102326 | 21 | 351 | 6.4 | 11.3 | 0.00 | 1.24 | 1.24 | 91 | 1017.9 |
| 20260508101823 | 21 | 314 | 3.2 | 6.4 | 0.00 | 1.24 | 1.24 | 91 | 1018.2 |
| 20260508101321 | 21 | 308 | 3.2 | 11.3 | 0.00 | 1.24 | 1.24 | 91 | 1017.8 |
| 20260508100819 | 21 | 291 | 3.2 | 12.9 | 0.18 | 1.24 | 1.24 | 91 | 1017.8 |
| 20260508100317 | 21 | 279 | 9.7 | 11.3 | 0.30 | 1.24 | 1.24 | 91 | 1017.9 |
| 20260508095812 | 21 | 62 | 0.0 | 4.8 | 0.30 | 1.22 | 1.22 | 91 | 1017.9 |
| 20260508095310 | 21 | 234 | 0.0 | 3.2 | 0.18 | 1.19 | 1.19 | 91 | 1018.0 |
| 20260508094806 | 21 | 104 | 0.0 | 1.6 | 0.13 | 1.17 | 1.17 | 91 | 1018.0 |
| 20260508094304 | 21 | 95 | 0.0 | 4.8 | 0.13 | 1.17 | 1.17 | 90 | 1018.0 |
| 20260508093801 | 21 | 64 | 0.0 | 3.2 | 0.00 | 1.14 | 1.14 | 90 | 1017.7 |
| 20260508093258 | 21 | 136 | 1.6 | 3.2 | 0.00 | 1.14 | 1.14 | 90 | 1017.6 |
| 20260508092754 | 21 | 59 | 1.6 | 11.3 | 0.00 | 1.14 | 1.14 | 90 | 1017.6 |
| 20260508092253 | 21 | 356 | 4.8 | 6.4 | 0.00 | 1.14 | 1.14 | 90 | 1017.3 |
| 20260508091751 | 21 | 25 | 4.8 | 14.5 | 0.18 | 1.14 | 1.14 | 90 | 1017.1 |
| 20260508091247 | 21 | 9 | 3.2 | 4.8 | 0.00 | 1.12 | 1.12 | 91 | 1016.9 |
| 20260508090745 | 21 | 169 | 0.0 | 4.8 | 0.13 | 1.12 | 1.12 | 91 | 1017.0 |
| 20260508090243 | 21 | 11 | 6.4 | 9.7 | 0.13 | 1.12 | 1.12 | 91 | 1016.9 |
| 20260508085738 | 21 | 21 | 3.2 | 4.8 | 0.18 | 1.09 | 1.09 | 91 | 1016.8 |
| 20260508085236 | 21 | 68 | 1.6 | 11.3 | 0.30 | 1.07 | 1.07 | 91 | 1016.6 |
| 20260508084731 | 21 | 330 | 1.6 | 14.5 | 0.13 | 1.04 | 1.04 | 91 | 1016.7 |
| 20260508084229 | 22 | 44 | 3.2 | 4.8 | 0.18 | 1.02 | 1.02 | 92 | 1016.5 |
| 20260508083727 | 22 | 343 | 1.6 | 3.2 | 0.00 | 0.99 | 0.99 | 92 | 1016.5 |
| 20260508083225 | 22 | 274 | 9.7 | 11.3 | 0.00 | 0.99 | 0.99 | 92 | 1016.4 |
| 20260508082719 | 22 | 307 | 11.3 | 20.9 | 0.13 | 0.99 | 0.99 | 92 | 1016.5 |
| 20260508082217 | 22 | 304 | 4.8 | 9.7 | 0.61 | 0.99 | 0.99 | 92 | 1016.3 |
| 20260508081714 | 22 | 317 | 8.0 | 16.1 | 0.61 | 0.97 | 0.97 | 92 | 1016.1 |
| 20260508081210 | 22 | 43 | 6.4 | 9.7 | 0.13 | 0.89 | 0.89 | 92 | 1016.4 |
| 20260508080708 | 22 | 282 | 9.7 | 11.3 | 0.18 | 0.86 | 0.86 | 91 | 1016.3 |
| 20260508080206 | 22 | 321 | 6.4 | 9.7 | 0.18 | 0.86 | 0.86 | 91 | 1016.5 |
| 20260508075702 | 22 | 95 | 0.0 | 1.6 | 0.00 | 0.84 | 0.84 | 92 | 1016.3 |
| 20260508075159 | 22 | 286 | 4.8 | 9.7 | 0.13 | 0.84 | 0.84 | 91 | 1016.2 |
| 20260508074657 | 22 | 356 | 3.2 | 9.7 | 0.13 | 0.84 | 0.84 | 91 | 1016.3 |
| 20260508074154 | 22 | 289 | 3.2 | 6.4 | 0.18 | 0.81 | 0.81 | 91 | 1016.3 |
| 20260508073650 | 22 | 12 | 1.6 | 4.8 | 0.66 | 0.81 | 0.81 | 91 | 1016.3 |
| 20260508073149 | 22 | 322 | 3.2 | 3.2 | 0.66 | 0.76 | 0.76 | 91 | 1016.4 |
| 20260508072644 | 22 | 306 | 6.4 | 9.7 | 0.30 | 0.71 | 0.71 | 91 | 1016.2 |
| 20260508072141 | 22 | 88 | 1.6 | 9.7 | 0.13 | 0.66 | 0.66 | 91 | 1016.4 |
| 20260508071639 | 22 | 290 | 8.0 | 11.3 | 0.30 | 0.66 | 0.66 | 90 | 1016.2 |
| 20260508071137 | 22 | 290 | 6.4 | 11.3 | 0.18 | 0.64 | 0.64 | 90 | 1016.1 |
| 20260508070634 | 22 | 22 | 1.6 | 3.2 | 0.13 | 0.61 | 0.61 | 90 | 1016.1 |
| 20260508070133 | 22 | 355 | 6.4 | 11.3 | 0.61 | 0.61 | 0.61 | 89 | 1016.0 |
| 20260508065630 | 22 | 305 | 3.2 | 6.4 | 0.79 | 0.58 | 0.58 | 89 | 1016.2 |
| 20260508065127 | 23 | 50 | 3.2 | 9.7 | 0.79 | 0.51 | 0.51 | 89 | 1016.2 |
| 20260508064625 | 23 | 73 | 0.0 | 0.0 | 0.48 | 0.46 | 0.46 | 89 | 1016.2 |
| 20260508064123 | 23 | 195 | 1.6 | 3.2 | 0.13 | 0.38 | 0.38 | 88 | 1016.3 |
| 20260508063620 | 23 | 95 | 0.0 | 0.0 | 0.30 | 0.38 | 0.38 | 88 | 1016.1 |
| 20260508063119 | 23 | 56 | 1.6 | 4.8 | 0.89 | 0.36 | 0.36 | 87 | 1016.3 |
| 20260508062615 | 23 | 80 | 0.0 | 0.0 | 1.27 | 0.30 | 0.30 | 87 | 1016.4 |
| 20260508062112 | 23 | 100 | 0.0 | 1.6 | 0.89 | 0.18 | 0.18 | 86 | 1016.9 |
| 20260508061609 | 23 | 89 | 0.0 | 0.0 | 0.30 | 0.08 | 0.08 | 85 | 1016.7 |
| 20260508061106 | 23 | 58 | 1.6 | 1.6 | 0.18 | 0.03 | 0.03 | 85 | 1016.9 |
| 20260508060603 | 23 | 60 | 1.6 | 3.2 | 0.18 | 0.03 | 0.03 | 84 | 1016.7 |
| 20260508060100 | 23 | 92 | 1.6 | 1.6 | 0.00 | 0.00 | 0.00 | 85 | 1016.7 |
| 20260508055556 | 23 | 108 | 0.0 | 0.0 | 0.00 | 0.00 | 0.00 | 85 | 1016.9 |
| 20260508055053 | 23 | 104 | 0.0 | 0.0 | 0.00 | 0.00 | 0.00 | 85 | 1016.8 |
| 20260508054549 | 23 | 37 | 0.0 | 4.8 | 0.00 | 0.00 | 0.00 | 84 | 1016.8 |
| 20260508054047 | 24 | 47 | 1.6 | 4.8 | 0.00 | 0.00 | 0.00 | 84 | 1016.8 |
| 20260508053543 | 23 | 45 | 3.2 | 3.2 | 0.00 | 0.00 | 0.00 | 84 | 1017.0 |
| 20260508053042 | 23 | 63 | 1.6 | 4.8 | 0.00 | 0.00 | 0.00 | 83 | 1016.9 |
| 20260508052539 | 24 | 79 | 3.2 | 6.4 | 0.00 | 0.00 | 0.00 | 83 | 1017.1 |
| 20260508052035 | 24 | 101 | 3.2 | 9.7 | 0.00 | 0.00 | 0.00 | 83 | 1017.0 |
| 20260508051532 | 25 | 78 | 1.6 | 3.2 | 0.00 | 0.00 | 0.00 | 84 | 1017.2 |
| 20260508051027 | 25 | 100 | 0.0 | 9.7 | 0.00 | 0.00 | 0.00 | 81 | 1017.0 |
| 20260508050524 | 26 | 95 | 6.4 | 9.7 | 0.00 | 0.00 | 0.00 | 78 | 1017.0 |
| 20260508050021 | 26 | 85 | 3.2 | 4.8 | 0.00 | 0.00 | 0.00 | 76 | 1017.0 |
| 20260508045517 | 26 | 71 | 1.6 | 4.8 | 0.00 | 0.00 | 0.00 | 76 | 1016.9 |
| 20260508045015 | 26 | 57 | 0.0 | 4.8 | 0.00 | 0.00 | 0.00 | 75 | 1017.0 |
| 20260508044512 | 26 | 77 | 1.6 | 3.2 | 0.00 | 0.00 | 0.00 | 75 | 1016.8 |
| 20260508044008 | 26 | 61 | 3.2 | 6.4 | 0.00 | 0.00 | 0.00 | 74 | 1016.9 |
| 20260508043505 | 26 | 90 | 4.8 | 12.9 | 0.00 | 0.00 | 0.00 | 74 | 1016.8 |
| 20260508043001 | 27 | 61 | 1.6 | 11.3 | 0.00 | 0.00 | 0.00 | 70 | 1016.8 |
| 20260508042459 | 27 | 117 | 3.2 | 6.4 | 0.00 | 0.00 | 0.00 | 68 | 1017.0 |
| 20260508041955 | 27 | 62 | 1.6 | 3.2 | 0.00 | 0.00 | 0.00 | 68 | 1016.8 |
| 20260508041452 | 28 | 128 | 4.8 | 6.4 | 0.00 | 0.00 | 0.00 | 67 | 1017.1 |
| 20260508040949 | 29 | 120 | 4.8 | 6.4 | 0.00 | 0.00 | 0.00 | 63 | 1016.8 |
| 20260508040446 | 29 | 81 | 0.0 | 1.6 | 0.00 | 0.00 | 0.00 | 62 | 1017.0 |
| 20260508035944 | 28 | 49 | 1.6 | 4.8 | 0.00 | 0.00 | 0.00 | 64 | 1017.0 |
| 20260508035440 | 28 | 71 | 3.2 | 6.4 | 0.00 | 0.00 | 0.00 | 62 | 1017.0 |
| 20260508034937 | 28 | 346 | 3.2 | 9.7 | 0.00 | 0.00 | 0.00 | 62 | 1017.0 |
| 20260508034435 | 29 | 98 | 3.2 | 6.4 | 0.00 | 0.00 | 0.00 | 63 | 1017.1 |
| 20260508033931 | 29 | 96 | 0.0 | 1.6 | 0.00 | 0.00 | 0.00 | 63 | 1017.0 |
| 20260508033429 | 29 | 45 | 0.0 | 3.2 | 0.00 | 0.00 | 0.00 | 64 | 1017.2 |
| 20260508032926 | 28 | 328 | 1.6 | 1.6 | 0.00 | 0.00 | 0.00 | 67 | 1017.3 |
| 20260508032424 | 28 | 101 | 0.0 | 0.0 | 0.00 | 0.00 | 0.00 | 68 | 1017.2 |
| 20260508031920 | 29 | 128 | 0.0 | 4.8 | 0.00 | 0.00 | 0.00 | 66 | 1017.3 |
| 20260508031418 | 29 | 13 | 0.0 | 1.6 | 0.00 | 0.00 | 0.00 | 66 | 1017.2 |
| 20260508030913 | 30 | 88 | 0.0 | 0.0 | 0.00 | 0.00 | 0.00 | 66 | 1017.0 |
| 20260508030411 | 30 | 95 | 1.6 | 3.2 | 0.00 | 0.00 | 0.00 | 62 | 1017.0 |
| 20260508025908 | 30 | 17 | 0.0 | 3.2 | 0.00 | 0.00 | 0.00 | 66 | 1017.1 |
| 20260508025404 | 30 | 135 | 6.4 | 6.4 | 0.00 | 0.00 | 0.00 | 64 | 1016.9 |
| 20260508024901 | 29 | 23 | 0.0 | 3.2 | 0.00 | 0.00 | 0.00 | 64 | 1017.1 |
| 20260508024358 | 28 | 113 | 1.6 | 1.6 | 0.00 | 0.00 | 0.00 | 63 | 1016.9 |
| 20260508023854 | 28 | 52 | 0.0 | 3.2 | 0.00 | 0.00 | 0.00 | 66 | 1017.0 |
| 20260508023352 | 28 | 126 | 4.8 | 4.8 | 0.00 | 0.00 | 0.00 | 63 | 1017.1 |
| 20260508022848 | 28 | 87 | 3.2 | 4.8 | 0.00 | 0.00 | 0.00 | 62 | 1017.1 |
| 20260508022344 | 28 | 110 | 6.4 | 6.4 | 0.00 | 0.00 | 0.00 | 62 | 1017.1 |
| 20260508021841 | 28 | 94 | 4.8 | 6.4 | 0.00 | 0.00 | 0.00 | 61 | 1017.2 |
| 20260508021337 | 28 | 26 | 3.2 | 4.8 | 0.00 | 0.00 | 0.00 | 64 | 1017.3 |
| 20260508020833 | 27 | 52 | 0.0 | 4.8 | 0.00 | 0.00 | 0.00 | 66 | 1017.2 |
| 20260508020331 | 27 | 74 | 1.6 | 6.4 | 0.00 | 0.00 | 0.00 | 66 | 1017.2 |
| 20260508015828 | 27 | 53 | 1.6 | 4.8 | 0.00 | 0.00 | 0.00 | 64 | 1017.3 |
| 20260508015326 | 28 | 72 | 1.6 | 3.2 | 0.00 | 0.00 | 0.00 | 64 | 1017.2 |
| 20260508014822 | 27 | 73 | 1.6 | 3.2 | 0.00 | 0.00 | 0.00 | 65 | 1017.2 |
| 20260508014319 | 28 | 101 | 4.8 | 4.8 | 0.00 | 0.00 | 0.00 | 65 | 1017.4 |
| 20260508013814 | 28 | 49 | 3.2 | 9.7 | 0.00 | 0.00 | 0.00 | 63 | 1017.5 |
| 20260508013312 | 27 | 41 | 3.2 | 6.4 | 0.00 | 0.00 | 0.00 | 67 | 1017.3 |
| 20260508012809 | 27 | 35 | 4.8 | 12.9 | 0.00 | 0.00 | 0.00 | 69 | 1017.5 |
| 20260508012307 | 26 | 54 | 1.6 | 9.7 | 0.00 | 0.00 | 0.00 | 71 | 1017.5 |
| 20260508011804 | 27 | 71 | 3.2 | 6.4 | 0.00 | 0.00 | 0.00 | 71 | 1017.6 |
| 20260508011301 | 27 | 43 | 1.6 | 4.8 | 0.00 | 0.00 | 0.00 | 68 | 1017.6 |
| 20260508010758 | 27 | 16 | 3.2 | 6.4 | 0.00 | 0.00 | 0.00 | 66 | 1017.6 |
| 20260508010256 | 27 | 52 | 0.0 | 1.6 | 0.00 | 0.00 | 0.00 | 68 | 1017.4 |
| 20260508005752 | 27 | 103 | 0.0 | 1.6 | 0.00 | 0.00 | 0.00 | 68 | 1017.3 |
| 20260508005249 | 27 | 33 | 1.6 | 3.2 | 0.00 | 0.00 | 0.00 | 69 | 1017.3 |
| 20260508004744 | 27 | 93 | 1.6 | 3.2 | 0.00 | 0.00 | 0.00 | 67 | 1017.3 |
| 20260508004242 | 28 | 57 | 1.6 | 1.6 | 0.00 | 0.00 | 0.00 | 67 | 1017.4 |
| 20260508003738 | 28 | 41 | 3.2 | 3.2 | 0.00 | 0.00 | 0.00 | 65 | 1017.7 |
| 20260508003235 | 28 | 79 | 0.0 | 1.6 | 0.00 | 0.00 | 0.00 | 66 | 1017.8 |
| 20260508002732 | 27 | 65 | 0.0 | 1.6 | 0.00 | 0.00 | 0.00 | 69 | 1017.7 |
| 20260508002229 | 27 | 97 | 0.0 | 3.2 | 0.00 | 0.00 | 0.00 | 70 | 1017.8 |
| 20260508001725 | 27 | 36 | 3.2 | 3.2 | 0.00 | 0.00 | 0.00 | 68 | 1017.9 |
| 20260508001220 | 27 | 54 | 3.2 | 3.2 | 0.00 | 0.00 | 0.00 | 70 | 1017.8 |
| 20260508000717 | 27 | 65 | 1.6 | 4.8 | 0.00 | 0.00 | 0.00 | 69 | 1017.9 |
| 20260508000214 | 27 | 52 | 3.2 | 4.8 | 0.00 | 0.00 | 0.00 | 69 | 1017.8 |
| 20260507235711 | 27 | 34 | 1.6 | 6.4 | 0.00 | 0.00 | 0.00 | 69 | 1017.6 |
| 20260507235208 | 26 | 69 | 3.2 | 4.8 | 0.00 | 0.00 | 0.00 | 69 | 1017.7 |
| 20260507234705 | 27 | 58 | 1.6 | 4.8 | 0.00 | 0.00 | 0.00 | 70 | 1017.4 |
| 20260507234202 | 27 | 54 | 1.6 | 6.4 | 0.00 | 0.00 | 0.00 | 69 | 1017.3 |
| 20260507233658 | 27 | 90 | 1.6 | 9.7 | 0.00 | 0.00 | 0.00 | 69 | 1017.4 |
| 20260507233157 | 27 | 83 | 0.0 | 6.4 | 0.00 | 0.00 | 0.00 | 72 | 1017.4 |
| 20260507232653 | 27 | 17 | 1.6 | 6.4 | 0.00 | 0.00 | 0.00 | 73 | 1017.2 |
| 20260507232150 | 26 | 24 | 4.8 | 6.4 | 0.00 | 0.00 | 0.00 | 73 | 1017.2 |
| 20260507231647 | 26 | 61 | 0.0 | 3.2 | 0.00 | 0.00 | 0.00 | 76 | 1017.2 |
| 20260507231144 | 26 | 78 | 1.6 | 3.2 | 0.00 | 0.00 | 0.00 | 76 | 1017.3 |
| 20260507230640 | 26 | 64 | 1.6 | 3.2 | 0.00 | 0.00 | 0.00 | 77 | 1017.3 |
| 20260507230132 | 26 | 39 | 4.8 | 6.4 | 0.00 | 0.00 | 0.00 | 78 | 1017.3 |
| 20260507225631 | 26 | 135 | 1.6 | 4.8 | 0.00 | 0.00 | 0.00 | 77 | 1017.2 |
| 20260507225129 | 26 | 42 | 1.6 | 3.2 | 0.00 | 0.00 | 0.00 | 78 | 1017.1 |
| 20260507224624 | 26 | 114 | 1.6 | 3.2 | 0.00 | 0.00 | 0.00 | 78 | 1017.2 |
| 20260507224121 | 26 | 73 | 3.2 | 3.2 | 0.00 | 0.00 | 0.00 | 79 | 1017.3 |
| 20260507223617 | 26 | 57 | 1.6 | 1.6 | 0.00 | 0.00 | 0.00 | 79 | 1017.2 |
| 20260507223114 | 26 | 38 | 1.6 | 3.2 | 0.00 | 0.00 | 0.00 | 80 | 1017.1 |
| 20260507222611 | 26 | 66 | 0.0 | 1.6 | 0.00 | 0.00 | 0.00 | 81 | 1016.8 |
| 20260507222108 | 26 | 76 | 0.0 | 1.6 | 0.00 | 0.00 | 0.00 | 81 | 1016.9 |
| 20260507221603 | 26 | 89 | 0.0 | 0.0 | 0.00 | 0.00 | 0.00 | 83 | 1016.6 |
| 20260507221101 | 25 | 85 | 0.0 | 0.0 | 0.00 | 0.00 | 0.00 | 84 | 1016.7 |
| 20260507220558 | 25 | 69 | 0.0 | 0.0 | 0.00 | 0.00 | 0.00 | 88 | 1016.9 |
| 20260507220055 | 24 | 116 | 0.0 | 0.0 | 0.00 | 0.00 | 0.00 | 89 | 1016.6 |
| 20260507215551 | 24 | 101 | 0.0 | 0.0 | 0.00 | 0.00 | 0.00 | 91 | 1016.5 |
| 20260507215049 | 23 | 92 | 0.0 | 0.0 | 0.00 | 0.00 | 0.00 | 92 | 1016.6 |
| 20260507214546 | 23 | 102 | 0.0 | 0.0 | 0.00 | 0.00 | 0.00 | 93 | 1016.4 |
| 20260507214042 | 23 | 86 | 0.0 | 0.0 | 0.00 | 0.00 | 0.00 | 94 | 1016.5 |
| 20260507213538 | 23 | 95 | 0.0 | 0.0 | 0.00 | 0.00 | 0.00 | 95 | 1016.5 |
| 20260507213036 | 22 | 91 | 0.0 | 0.0 | 0.00 | 0.00 | 0.00 | 95 | 1016.5 |
| 20260507212532 | 22 | 109 | 0.0 | 0.0 | 0.00 | 0.00 | 0.00 | 95 | 1016.5 |
| 20260507212029 | 22 | 101 | 0.0 | 0.0 | 0.00 | 0.00 | 0.00 | 95 | 1016.5 |
| 20260507211525 | 22 | 91 | 3.2 | 3.2 | 0.00 | 0.00 | 0.00 | 95 | 1016.5 |
| 20260507211021 | 22 | 83 | 1.6 | 1.6 | 0.00 | 0.00 | 0.00 | 95 | 1016.2 |
| 20260507210519 | 22 | 87 | 0.0 | 0.0 | 0.00 | 0.00 | 0.00 | 95 | 1016.4 |
| 20260507210016 | 21 | 87 | 0.0 | 0.0 | 0.00 | 0.00 | 0.00 | 95 | 1016.3 |
| 20260507205512 | 21 | 94 | 0.0 | 0.0 | 0.00 | 0.00 | 0.00 | 94 | 1016.0 |
| 20260507205009 | 21 | 94 | 0.0 | 0.0 | 0.00 | 0.00 | 0.00 | 94 | 1016.2 |
| 20260507204505 | 21 | 98 | 0.0 | 0.0 | 0.00 | 0.00 | 0.00 | 94 | 1016.1 |
| 20260507204003 | 21 | 86 | 0.0 | 0.0 | 0.00 | 0.00 | 0.00 | 94 | 1016.0 |
| 20260507203501 | 21 | 92 | 0.0 | 0.0 | 0.00 | 0.00 | 0.00 | 94 | 1016.0 |
| 20260507202957 | 21 | 98 | 0.0 | 0.0 | 0.00 | 0.00 | 0.00 | 94 | 1016.2 |
| 20260507202453 | 21 | 95 | 0.0 | 0.0 | 0.00 | 0.00 | 0.00 | 94 | 1016.4 |
| 20260507201949 | 21 | 95 | 0.0 | 0.0 | 0.00 | 0.00 | 0.00 | 94 | 1016.1 |
| 20260507201449 | 21 | 101 | 0.0 | 0.0 | 0.00 | 0.00 | 0.00 | 94 | 1016.1 |
| 20260507200946 | 21 | 93 | 0.0 | 0.0 | 0.00 | 0.00 | 0.00 | 94 | 1016.2 |
| 20260507200442 | 22 | 94 | 0.0 | 0.0 | 0.00 | 0.00 | 0.00 | 94 | 1016.4 |
| 20260507195938 | 22 | 103 | 0.0 | 0.0 | 0.00 | 0.00 | 0.00 | 94 | 1016.2 |
| 20260507195436 | 22 | 101 | 0.0 | 0.0 | 0.00 | 0.00 | 0.00 | 93 | 1016.1 |
| 20260507194933 | 22 | 81 | 0.0 | 0.0 | 0.00 | 0.00 | 0.00 | 94 | 1016.0 |
| 20260507194429 | 22 | 105 | 0.0 | 0.0 | 0.00 | 0.00 | 0.00 | 93 | 1016.1 |
| 20260507193925 | 22 | 100 | 0.0 | 0.0 | 0.00 | 0.00 | 0.00 | 93 | 1015.8 |
| 20260507193423 | 22 | 102 | 0.0 | 0.0 | 0.00 | 0.00 | 0.00 | 93 | 1015.9 |
| 20260507192919 | 22 | 99 | 0.0 | 0.0 | 0.00 | 0.00 | 0.00 | 93 | 1016.0 |
| 20260507192415 | 22 | 98 | 0.0 | 0.0 | 0.00 | 0.00 | 0.00 | 93 | 1016.0 |
| 20260507191912 | 22 | 102 | 0.0 | 0.0 | 0.00 | 0.00 | 0.00 | 93 | 1015.9 |
| 20260507191409 | 22 | 105 | 0.0 | 0.0 | 0.00 | 0.00 | 0.00 | 93 | 1015.9 |
| 20260507190905 | 22 | 99 | 0.0 | 0.0 | 0.00 | 0.00 | 0.00 | 93 | 1016.0 |
| 20260507190403 | 22 | 98 | 0.0 | 0.0 | 0.00 | 0.00 | 0.00 | 93 | 1016.0 |
| 20260507185902 | 22 | 107 | 0.0 | 0.0 | 0.00 | 0.00 | 0.00 | 93 | 1016.0 |
| 20260507185359 | 22 | 112 | 0.0 | 0.0 | 0.00 | 0.00 | 0.00 | 92 | 1016.0 |
| 20260507184855 | 22 | 79 | 0.0 | 0.0 | 0.00 | 0.00 | 0.00 | 92 | 1015.8 |
| 20260507184353 | 22 | 120 | 0.0 | 0.0 | 0.00 | 0.00 | 0.00 | 93 | 1016.0 |
| 20260507183850 | 22 | 103 | 0.0 | 0.0 | 0.00 | 0.00 | 0.00 | 92 | 1015.9 |
| 20260507183347 | 22 | 98 | 0.0 | 0.0 | 0.00 | 0.00 | 0.00 | 92 | 1016.2 |
| 20260507182845 | 22 | 109 | 0.0 | 0.0 | 0.00 | 0.00 | 0.00 | 92 | 1016.2 |
| 20260507182340 | 22 | 101 | 0.0 | 0.0 | 0.00 | 0.00 | 0.00 | 92 | 1016.0 |
| 20260507181837 | 22 | 65 | 0.0 | 1.6 | 0.00 | 0.00 | 0.00 | 92 | 1016.0 |
| 20260507181332 | 22 | 94 | 0.0 | 0.0 | 0.00 | 0.00 | 0.00 | 92 | 1016.1 |
| 20260507180830 | 22 | 103 | 0.0 | 0.0 | 0.00 | 0.00 | 0.00 | 92 | 1016.1 |
| 20260507180327 | 22 | 103 | 0.0 | 1.6 | 0.00 | 0.00 | 0.00 | 92 | 1016.2 |
| 20260507175822 | 22 | 81 | 0.0 | 1.6 | 0.00 | 0.00 | 0.00 | 92 | 1016.1 |
| 20260507175319 | 22 | 97 | 0.0 | 0.0 | 0.00 | 0.00 | 0.00 | 92 | 1016.5 |
| 20260507174816 | 22 | 63 | 0.0 | 0.0 | 0.00 | 0.00 | 0.00 | 92 | 1016.5 |
| 20260507174314 | 22 | 96 | 0.0 | 0.0 | 0.00 | 0.00 | 0.00 | 92 | 1016.4 |
| 20260507173812 | 22 | 81 | 0.0 | 0.0 | 0.00 | 0.00 | 0.00 | 92 | 1016.4 |
| 20260507173308 | 22 | 92 | 0.0 | 0.0 | 0.00 | 0.00 | 0.00 | 92 | 1016.5 |
| 20260507172805 | 22 | 94 | 0.0 | 0.0 | 0.00 | 0.00 | 0.00 | 91 | 1016.4 |
| 20260507172302 | 22 | 88 | 0.0 | 0.0 | 0.00 | 0.00 | 0.00 | 91 | 1016.7 |
| 20260507171757 | 22 | 67 | 0.0 | 0.0 | 0.00 | 0.00 | 0.00 | 91 | 1016.6 |
| 20260507171254 | 22 | 97 | 0.0 | 0.0 | 0.00 | 0.00 | 0.00 | 91 | 1016.6 |
| 20260507170751 | 23 | 73 | 0.0 | 0.0 | 0.00 | 0.00 | 0.00 | 91 | 1016.8 |
| 20260507170248 | 23 | 91 | 0.0 | 0.0 | 0.00 | 0.00 | 0.00 | 91 | 1016.8 |
| 20260507165743 | 23 | 101 | 0.0 | 0.0 | 0.00 | 0.00 | 0.00 | 91 | 1016.8 |
| 20260507165240 | 23 | 90 | 0.0 | 0.0 | 0.00 | 0.00 | 0.00 | 91 | 1016.9 |
| 20260507164736 | 23 | 94 | 0.0 | 0.0 | 0.00 | 0.00 | 0.00 | 91 | 1016.9 |
| 20260507164233 | 23 | 89 | 0.0 | 0.0 | 0.00 | 0.00 | 0.00 | 91 | 1016.9 |
| 20260507163730 | 23 | 82 | 0.0 | 0.0 | 0.00 | 0.00 | 0.00 | 91 | 1016.9 |
| 20260507163229 | 23 | 79 | 0.0 | 0.0 | 0.00 | 0.00 | 0.00 | 91 | 1017.0 |
| 20260507162724 | 23 | 98 | 0.0 | 0.0 | 0.00 | 0.00 | 0.00 | 91 | 1017.1 |
| 20260507162220 | 23 | 98 | 0.0 | 0.0 | 0.00 | 0.00 | 0.00 | 91 | 1017.1 |
| 20260507161717 | 23 | 109 | 0.0 | 1.6 | 0.00 | 0.00 | 0.00 | 91 | 1017.2 |
| 20260507161214 | 23 | 80 | 0.0 | 0.0 | 0.00 | 0.00 | 0.00 | 91 | 1017.2 |
| 20260507160709 | 23 | 90 | 0.0 | 0.0 | 0.00 | 0.00 | 0.00 | 91 | 1017.3 |
| 20260507160206 | 23 | 84 | 0.0 | 0.0 | 0.00 | 0.00 | 0.00 | 91 | 1017.5 |
| 20260507155702 | 23 | 90 | 0.0 | 0.0 | 0.00 | 0.00 | 0.00 | 91 | 1017.4 |
| 20260507155158 | 23 | 82 | 0.0 | 1.6 | 0.00 | 0.00 | 0.00 | 91 | 1017.5 |
| 20260507154655 | 23 | 84 | 0.0 | 0.0 | 0.00 | 0.00 | 0.00 | 91 | 1017.6 |
| 20260507154153 | 23 | 107 | 0.0 | 0.0 | 0.00 | 0.00 | 0.00 | 91 | 1017.4 |
| 20260507153649 | 23 | 96 | 0.0 | 0.0 | 0.00 | 0.00 | 0.00 | 91 | 1017.5 |
| 20260507153145 | 23 | 107 | 0.0 | 0.0 | 0.00 | 0.00 | 0.00 | 91 | 1017.3 |
| 20260507152642 | 23 | 84 | 0.0 | 0.0 | 0.00 | 0.00 | 0.00 | 91 | 1017.5 |
| 20260507152138 | 23 | 91 | 0.0 | 0.0 | 0.00 | 0.00 | 0.00 | 91 | 1017.4 |
| 20260507151634 | 23 | 91 | 0.0 | 1.6 | 0.00 | 0.00 | 0.00 | 91 | 1017.4 |
| 20260507151131 | 23 | 56 | 4.8 | 6.4 | 0.00 | 0.00 | 0.00 | 91 | 1017.5 |
| 20260507150628 | 23 | 64 | 1.6 | 1.6 | 0.00 | 0.00 | 0.00 | 91 | 1017.4 |
| 20260507150125 | 23 | 103 | 0.0 | 3.2 | 0.00 | 0.00 | 0.00 | 90 | 1017.4 |
| 20260507145625 | 23 | 92 | 0.0 | 1.6 | 0.00 | 0.03 | 0.03 | 90 | 1017.2 |
| 20260507145124 | 23 | 61 | 3.2 | 3.2 | 0.00 | 0.03 | 0.03 | 90 | 1017.6 |
| 20260507144619 | 23 | 85 | 0.0 | 0.0 | 0.00 | 0.03 | 0.03 | 90 | 1017.5 |
| 20260507144118 | 22 | 80 | 0.0 | 0.0 | 0.00 | 0.03 | 0.03 | 89 | 1017.6 |
| 20260507143614 | 22 | 100 | 0.0 | 0.0 | 0.00 | 0.03 | 0.03 | 89 | 1017.7 |
| 20260507143112 | 22 | 95 | 0.0 | 0.0 | 0.00 | 0.03 | 0.03 | 88 | 1017.7 |
| 20260507142607 | 22 | 87 | 0.0 | 0.0 | 0.00 | 0.03 | 0.03 | 88 | 1017.8 |
| 20260507142104 | 22 | 90 | 0.0 | 0.0 | 0.00 | 0.03 | 0.03 | 87 | 1017.7 |
| 20260507141600 | 22 | 99 | 0.0 | 0.0 | 0.00 | 0.03 | 0.03 | 87 | 1017.8 |
| 20260507141057 | 22 | 90 | 0.0 | 0.0 | 0.00 | 0.03 | 0.03 | 86 | 1017.7 |
| 20260507140553 | 22 | 80 | 0.0 | 0.0 | 0.00 | 0.03 | 0.03 | 85 | 1017.8 |
| 20260507140051 | 22 | 84 | 0.0 | 0.0 | 0.00 | 0.03 | 0.03 | 85 | 1017.8 |
| 20260507135548 | 22 | 98 | 0.0 | 0.0 | 0.00 | 0.03 | 0.03 | 84 | 1017.7 |
| 20260507135045 | 22 | 91 | 0.0 | 0.0 | 0.00 | 0.03 | 0.03 | 83 | 1017.8 |
| 20260507134541 | 22 | 104 | 0.0 | 0.0 | 0.00 | 0.03 | 0.03 | 82 | 1017.8 |
| 20260507134037 | 23 | 90 | 0.0 | 0.0 | 0.00 | 0.03 | 0.03 | 81 | 1017.5 |
| 20260507133534 | 23 | 101 | 0.0 | 0.0 | 0.00 | 0.03 | 0.03 | 80 | 1017.7 |
| 20260507133032 | 23 | 73 | 0.0 | 0.0 | 0.00 | 0.03 | 0.03 | 79 | 1017.7 |
| 20260507132528 | 23 | 100 | 0.0 | 1.6 | 0.00 | 0.03 | 0.03 | 79 | 1017.7 |
| 20260507132024 | 23 | 110 | 0.0 | 1.6 | 0.00 | 0.03 | 0.03 | 79 | 1017.8 |
| 20260507131522 | 23 | 97 | 0.0 | 0.0 | 0.00 | 0.03 | 0.03 | 78 | 1017.5 |
| 20260507131019 | 23 | 99 | 0.0 | 0.0 | 0.00 | 0.03 | 0.03 | 78 | 1017.5 |
| 20260507130515 | 23 | 92 | 0.0 | 0.0 | 0.00 | 0.03 | 0.03 | 77 | 1017.4 |
| 20260507130014 | 23 | 96 | 0.0 | 0.0 | 0.00 | 0.03 | 0.03 | 76 | 1017.5 |
| 20260507125512 | 23 | 91 | 0.0 | 0.0 | 0.00 | 0.03 | 0.03 | 76 | 1017.4 |
| 20260507125011 | 23 | 95 | 0.0 | 0.0 | 0.00 | 0.03 | 0.03 | 75 | 1017.5 |
| 20260507124505 | 23 | 82 | 0.0 | 1.6 | 0.00 | 0.03 | 0.03 | 75 | 1017.5 |
| 20260507124003 | 23 | 72 | 0.0 | 1.6 | 0.00 | 0.03 | 0.03 | 74 | 1017.3 |
| 20260507123500 | 23 | 77 | 0.0 | 1.6 | 0.00 | 0.03 | 0.03 | 74 | 1017.3 |
| 20260507122951 | 23 | 87 | 0.0 | 0.0 | 0.00 | 0.03 | 0.03 | 73 | 1017.3 |